Weather in Baranovka

Russia / Saratov Oblast     52°07′04″N   46°55′51″E
temp.,
°C
wind,
m/s
gust,
m/s
humid.,
%
clouds,
%
prec.,
mm/h
press.,
hPa
HPBL,
m
13 april, tue
tue1301:00+10e336922 0.0 103223
04:00+8e337152 0.0 103228
07:00+7e37735 0.0 1033126
10:00+13ese584921 0.0 1033367
13:00+18ese67325 0.0 1032853
16:00+19ese67305 0.0 10301143
19:00+15ese49445 0.0 1029166
22:00+11ese310565 0.0 1030147
14 april, wed
wed1401:00+9e34651 0.0 102940
04:00+7e34690 0.0 102840
07:00+6e38720 0.0 1027137
10:00+13ese68571 0.0 1027436
13:00+17ese68400 0.0 10251106
16:00+19ese68356 0.0 10231490
19:00+15ese47530 0.0 1022129
22:00+12e36670 0.0 102283
15 april, thu
thu1501:00+10e33760 0.0 102142
04:00+9e33810 0.0 102029
07:00+8ene34822 0.0 102057
10:00+14e57595 0.0 1019339
13:00+19ese56445 0.0 1018848
16:00+21ese5535100 0.0 10162042
19:00+17ese3353100 0.0 101642
22:00+14e22597 0.0 101614
16 april, fri
fri1601:00+12e2268100 0.0 101513
04:00+10ene2268100 0.0 101512
07:00+10ne2266100 0.0 101522
10:00+15ene3550100 0.0 1015339
13:00+18e4439100 0.0 1015915
16:00+19ene333699 0.0 10151480
19:00+16e224988 0.0 101517
22:00+14nne2250100 0.0 101618
17 april, sat
sat1701:00+12ne5117495 0.0 1016290
04:00+11ne51083100 0.0 1018377
07:00+9ne5108374 0.0 1019434
10:00+9ne71072100 0.1 1020597
13:00+12ne795175 0.1 1021869
16:00+13ne89362 0.1 10211416
19:00+10ne711445 0.0 1023655
22:00+5ne814450 0.0 1026852